Regional Weather Roundup
Issued by NWS

Home | Current Version | Previous Version | Text Only | Print | Product List | Glossary Off
Versions: 1 2 3 4 5 6 7 8 9 10 11 12 13 14 15 16 17 18 19 20 21 22 23 24 25 26 27 28 29 30 31 32 33 34 35 36 37 38 39 40 41 42 43 44 45 46 47 48 49 50

000
ASUS43 KIND 220909
RWRIN

WEATHER ROUNDUP FOR INDIANA
NATIONAL WEATHER SERVICE INDIANAPOLIS IN
500 AM EDT SUN OCT 22 2017

NOTE: "FAIR" INDICATES FEW OR NO CLOUDS BELOW 12,000 FEET WITH NO
SIGNIFICANT WEATHER AND/OR OBSTRUCTIONS TO VISIBILITY.

* - STATION DOES NOT REPORT WEATHER SUCH AS PRECIPITATION OR FOG.

+ - STATION NOT QUALITY CONTROLLED BY THE NATIONAL WEATHER SERVICE.
    USE DATA WITH CAUTION...ESPECIALLY DEWPOINT AND RELATIVE
    HUMIDITY OBSERVATIONS.

INZ001>003-010>013-019-020-221000-
NORTHWEST INDIANA

CITY           SKY/WX    TMP DP  RH WIND       PRES   REMARKS
GARY /AIRPORT/ PTCLDY    65  51  60 SE10G17   29.98F
KNOX *+        CLOUDY    63  50  63 S13       30.03F
LA PORTE +     CLOUDY    62  51  66 S8        30.03F
MICHIGAN CITY+ CLOUDY    63  50  63 S9        30.01F
MONTICELLO +   CLOUDY    63  49  61 S8        30.03F
RENSSELAER +   CLOUDY    63  45  51 SE10      30.02F
VALPARAISO     CLOUDY    66  53  63 S10       30.02F

$$

LMZ046-743>745-221000-
SOUTHERN LAKE MICHIGAN

STATION/POSITION TIME  TEMP    WIND        PRES    WAVE
                       AIR SEA DIR/SP/G            HT
                 (UTC) (F)     (DEG/KT/KT) (MB)    (FT)
BURNS HARBOR     0840   66     170/ 11/ 21 1015.9F
MICHIGAN CITY    0840   65     150/ 13/ 17   N/A
5NW MICH CITY    0900   63 58  180/ 16/ 19   N/A     2

$$

INZ004-005-014>016-021>024-221000-
NORTH CENTRAL INDIANA

CITY           SKY/WX    TMP DP  RH WIND       PRES   REMARKS
GOSHEN         PTCLDY    61  46  57 SE10      30.08F
LOGANSPORT +   PTCLDY    55  48  76 SE9       30.07F
PERU/GRISSOM   CLOUDY    59  48  67 S9        30.07F
SOUTH BEND     MOCLDY    62  51  67 SE8       30.05F
WARSAW +       CLEAR     59  46  63 SE6       30.08F

$$

INZ006>009-017-018-025>027-221000-
NORTHEAST INDIANA

CITY           SKY/WX    TMP DP  RH WIND       PRES   REMARKS
AUBURN +       CLOUDY    55  45  67 CALM      30.12F
FORT WAYNE     CLOUDY    57  47  69 SE6       30.12F
HUNTINGTON +   CLOUDY    58  47  66 SE6       30.11S
KENDALLVILLE + CLOUDY    58  47  67 SE8       30.11F

$$

INZ028-029-035-036-043>045-051>053-221000-
WEST CENTRAL INDIANA

CITY           SKY/WX    TMP DP  RH WIND       PRES   REMARKS
CRAWFORDSVL +  CLOUDY    59  50  72 SE10      30.06
GREENCASTLE +  CLEAR     59  48  67 SE7       30.08F
LAFAYETTE      MOCLDY    63  52  67 S9        30.03F
TERRE HAUTE    CLEAR     63  52  67 S12       30.05F

$$

INZ030>032-037>040-046>048-054>057-064-065-221000-
CENTRAL INDIANA

CITY           SKY/WX    TMP DP  RH WIND       PRES   REMARKS
CP ATTERBURY + PTCLDY    54  46  76 CALM      30.13F
FISHERS *+     CLEAR     57  52  82 SE8       30.10F
FRANKFORT +    PTCLDY    60  51  71 S5        30.08F
GREENWOOD *+   CLEAR     60  51  71 SE9       30.12F
INDIANAPOLIS   PTCLDY    57  49  74 SE9       30.10F
-EAGLE CREEK   PTCLDY    59  48  67 SE7       30.09F
KOKOMO +       CLOUDY    60  49  66 S10       30.09F
MARION +       PTCLDY    57  48  72 S10       30.11F
MT COMFORT *+  CLEAR     57  52  82 S8        30.12F
SHELBYVILLE    CLEAR     58  47  66 SE7       30.12F
ZIONSVILLE +   CLEAR     57  49  74 SE9       30.10F

$$

INZ033-034-041-042-049-050-058-059-221000-
EAST CENTRAL INDIANA

CITY           SKY/WX    TMP DP  RH WIND       PRES   REMARKS
MUNCIE         PTCLDY    62  47  57 S9        30.13S
RICHMOND +     CLEAR     52  46  82 S9        30.18R

$$

INZ060-061-067>069-081>083-085>088-221000-
SOUTHWEST INDIANA

CITY           SKY/WX    TMP DP  RH WIND       PRES   REMARKS
EVANSVILLE     CLOUDY    63  53  70 S6        30.07F
HUNTINGBURG +  PTCLDY    64  53  67 S8        30.09F
WASHINGTON +   CLOUDY    59  50  72 SE7       30.07F

$$

INZ062-063-066-070>080-084-089>092-221000-
SOUTH CENTRAL AND SOUTHEAST INDIANA

CITY           SKY/WX    TMP DP  RH WIND       PRES   REMARKS
BEDFORD +      PTCLDY    57  48  72 SE6       30.11F
BLOOMINGTON    CLEAR     58  48  69 S7        30.09F
MADISON *+     CLEAR     61  48  63 SE6       30.17F
NORTH VERNON + PTCLDY    57  48  72 S6        30.15F
SEYMOUR +      CLOUDY    57  48  72 SE7       30.13F

$$





USA.gov is the U.S. government's official web portal to all federal, state and local government web resources and services.